contact:dominique.lefevre@mio.osupytheas.fr, maurice.libes@osupytheas.fr, didier.mallarino@osupytheas.fr
Project:EMSO http://www.emso-fr.org/EMSO-France
Depth: 2436.0 m
Title:EMSO Ligure Ouest : Data MII capteur AQUADOPP
Date,Latitude,Longitude,X_East,Y_North,Z_Up,Amplitude_X,Amplitude_Y,Amplitude_Z,Batterie,SoundSpeed,Heading,Pitch,Roll,Pressure,TIS,Speed,Direction
, degrees North, degrees East, m.s-1, m.s-1,m.s-1, 1, 1, 1, Volt, m.s-1, degree, degree, degree, dbar, degree_C, m.s-1, degree
2020-09-10T00:04:03,42.805,6.029,0.028,-0.008,0.01,105.0,111.0,102.0,13.3,1505.2,326.5,-0.7,1.8,2470.521,13.3,0.029,105.9
2020-09-10T00:07:03,42.805,6.029,0.034,0.009,0.009,104.0,111.0,102.0,13.4,1505.3,324.0,-0.7,1.8,2470.43,13.31,0.035,75.2
2020-09-10T00:10:03,42.805,6.029,0.017,0.001,-0.042,105.0,111.0,101.0,13.3,1505.3,324.5,-0.7,1.8,2470.433,13.32,0.017,86.6
2020-09-10T00:13:03,42.805,6.029,0.0,-0.008,-0.02,104.0,111.0,102.0,13.4,1505.3,327.3,-0.7,1.8,2470.46,13.32,0.008,180.0
2020-09-10T00:16:03,42.805,6.029,0.029,-0.011,-0.029,105.0,111.0,101.0,13.3,1505.3,325.5,-0.7,1.8,2470.446,13.32,0.031,110.8
2020-09-10T00:19:03,42.805,6.029,0.046,-0.006,0.001,104.0,111.0,103.0,13.4,1505.3,325.1,-0.7,1.8,2470.459,13.32,0.046,97.4
2020-09-10T00:22:04,42.805,6.029,0.03,-0.007,0.005,104.0,111.0,103.0,13.3,1505.3,328.3,-0.7,1.8,2470.438,13.32,0.03,103.1
2020-09-10T00:25:03,42.805,6.029,0.012,0.004,-0.007,104.0,112.0,102.0,13.4,1505.3,325.7,-0.7,1.9,2470.431,13.32,0.012,71.6
2020-09-10T00:28:03,42.805,6.029,0.023,-0.014,-0.029,103.0,110.0,102.0,13.3,1505.3,324.7,-0.7,1.8,2470.436,13.32,0.026,121.3
2020-09-10T00:31:05,42.805,6.029,0.035,-0.001,-0.003,104.0,113.0,102.0,13.4,1505.3,326.8,-0.7,1.8,2470.483,13.32,0.035,91.6
2020-09-10T00:34:03,42.805,6.029,0.017,0.008,0.016,105.0,110.0,103.0,13.4,1505.3,324.5,-0.7,1.8,2470.403,13.32,0.018,64.8
2020-09-10T00:37:04,42.805,6.029,0.019,0.0,0.029,104.0,111.0,103.0,13.3,1505.3,324.9,-0.7,1.8,2470.416,13.32,0.019,90.0
2020-09-10T00:40:03,42.805,6.029,0.018,-0.007,0.0,104.0,113.0,102.0,13.4,1505.3,326.9,-0.7,1.8,2470.448,13.32,0.019,111.2
2020-09-10T00:43:03,42.805,6.029,0.011,-0.004,-0.015,104.0,113.0,102.0,13.4,1505.3,327.3,-0.7,1.8,2470.43,13.32,0.011,110.0
2020-09-10T00:46:03,42.805,6.029,0.025,0.01,0.024,103.0,114.0,102.0,13.3,1505.3,327.9,-0.7,1.8,2470.422,13.32,0.026,68.2
2020-09-10T00:49:03,42.805,6.029,0.017,-0.01,-0.009,104.0,113.0,101.0,13.4,1505.3,328.2,-0.7,1.8,2470.428,13.32,0.019,120.5
2020-09-10T00:52:03,42.805,6.029,0.015,-0.02,-0.025,104.0,114.0,101.0,13.4,1505.3,324.8,-0.7,1.8,2470.389,13.32,0.025,143.1
2020-09-10T00:55:04,42.805,6.029,0.018,0.0,-0.006,104.0,114.0,101.0,13.4,1505.3,326.1,-0.7,1.8,2470.427,13.32,0.018,90.0
2020-09-10T00:58:03,42.805,6.029,0.028,-0.004,0.005,105.0,115.0,101.0,13.4,1505.3,327.3,-0.7,1.8,2470.433,13.32,0.028,98.1
2020-09-10T01:04:03,42.805,6.029,-0.009,0.009,-0.018,105.0,115.0,103.0,13.4,1505.2,324.2,-0.7,1.8,2470.443,13.3,0.012,315.0
2020-09-10T01:07:03,42.805,6.029,0.03,0.005,0.032,105.0,115.0,102.0,13.4,1505.3,326.9,-0.7,1.9,2470.448,13.31,0.03,80.5
2020-09-10T01:10:03,42.805,6.029,0.006,-0.001,0.005,104.0,114.0,101.0,13.4,1505.3,325.3,-0.7,1.8,2470.416,13.31,0.006,99.5
2020-09-10T01:13:04,42.805,6.029,0.002,0.001,-0.006,105.0,113.0,101.0,13.4,1505.3,324.5,-0.7,1.8,2470.406,13.32,0.002,63.4
2020-09-10T01:16:03,42.805,6.029,0.021,-0.021,0.027,104.0,113.0,103.0,13.3,1505.3,324.0,-0.7,1.8,2470.43,13.32,0.029,135.0
2020-09-10T01:19:04,42.805,6.029,0.031,-0.006,0.006,104.0,116.0,101.0,13.4,1505.3,326.4,-0.7,1.8,2470.409,13.32,0.031,101.0
2020-09-10T01:22:03,42.805,6.029,0.025,0.001,-0.023,105.0,112.0,103.0,13.3,1505.3,327.9,-0.7,1.9,2470.414,13.32,0.025,87.7
2020-09-10T01:25:04,42.805,6.029,0.04,0.007,-0.005,104.0,113.0,102.0,13.3,1505.3,326.8,-0.7,1.9,2470.402,13.32,0.04,80.1
2020-09-10T01:28:03,42.805,6.029,0.027,-0.001,0.003,105.0,115.0,101.0,13.4,1505.3,328.4,-0.7,1.8,2470.406,13.32,0.027,92.1
2020-09-10T01:31:05,42.805,6.029,0.013,0.007,-0.005,105.0,116.0,102.0,13.4,1505.3,323.2,-0.7,1.8,2470.396,13.32,0.014,61.7
2020-09-10T01:34:04,42.805,6.029,0.022,-0.014,0.012,104.0,115.0,103.0,13.4,1505.3,324.1,-0.7,1.9,2470.434,13.32,0.026,122.5
2020-09-10T01:37:03,42.805,6.029,0.014,0.004,-0.016,105.0,116.0,103.0,13.4,1505.3,324.6,-0.7,1.8,2470.418,13.32,0.014,74.1
2020-09-10T01:40:04,42.805,6.029,0.036,0.003,0.02,105.0,112.0,103.0,13.4,1505.3,326.3,-0.7,1.8,2470.407,13.32,0.036,85.2
2020-09-10T01:43:03,42.805,6.029,0.018,0.003,0.019,104.0,115.0,102.0,13.3,1505.3,326.0,-0.7,1.8,2470.372,13.32,0.018,80.5
2020-09-10T01:46:05,42.805,6.029,0.032,0.006,0.006,104.0,116.0,103.0,13.4,1505.3,328.2,-0.7,1.8,2470.42,13.32,0.032,79.4
2020-09-10T01:49:03,42.805,6.029,0.029,-0.01,-0.03,105.0,115.0,102.0,13.4,1505.3,322.7,-0.7,1.8,2470.404,13.32,0.03,109.0
2020-09-10T01:52:03,42.805,6.029,0.026,0.007,-0.004,105.0,115.0,103.0,13.4,1505.3,326.1,-0.7,1.8,2470.346,13.32,0.026,74.9
2020-09-10T01:55:04,42.805,6.029,0.031,-0.01,-0.013,105.0,111.0,101.0,13.3,1505.3,324.3,-0.7,1.8,2470.401,13.32,0.032,107.9
2020-09-10T01:58:03,42.805,6.029,0.034,-0.01,0.024,106.0,113.0,102.0,13.4,1505.3,327.6,-0.7,1.8,2470.399,13.32,0.035,106.4
2020-09-10T02:04:03,42.805,6.029,0.026,-0.014,-0.004,105.0,115.0,102.0,13.4,1505.2,326.3,-0.7,1.8,2470.428,13.3,0.029,118.3
2020-09-10T02:07:03,42.805,6.029,0.001,0.0,-0.028,104.0,114.0,103.0,13.4,1505.3,326.2,-0.7,1.9,2470.397,13.31,0.001,90.0
2020-09-10T02:10:03,42.805,6.029,0.036,-0.001,-0.009,104.0,115.0,103.0,13.4,1505.3,323.2,-0.7,1.8,2470.412,13.31,0.036,91.6
2020-09-10T02:13:03,42.805,6.029,0.024,-0.005,-0.017,104.0,114.0,103.0,13.4,1505.3,325.7,-0.7,1.8,2470.438,13.32,0.024,101.8
2020-09-10T02:16:03,42.805,6.029,0.029,0.003,-0.003,105.0,115.0,102.0,13.4,1505.3,325.8,-0.7,1.8,2470.371,13.32,0.029,84.1
2020-09-10T02:22:04,42.805,6.029,0.027,-0.003,-0.026,104.0,116.0,103.0,13.4,1505.2,325.7,-0.8,1.8,2470.453,13.3,0.027,96.3
2020-09-10T02:25:03,42.805,6.029,0.038,0.004,0.018,106.0,115.0,103.0,13.4,1505.3,324.5,-0.7,1.8,2470.419,13.31,0.038,84.0
2020-09-10T02:28:03,42.805,6.029,0.024,0.003,0.003,106.0,117.0,102.0,13.4,1505.3,324.0,-0.7,1.8,2470.412,13.31,0.024,82.9
2020-09-10T02:31:03,42.805,6.029,0.033,-0.004,-0.003,105.0,117.0,102.0,13.3,1505.3,323.3,-0.7,1.8,2470.421,13.32,0.033,96.9
2020-09-10T02:34:03,42.805,6.029,0.029,-0.004,0.023,104.0,114.0,102.0,13.4,1505.3,326.1,-0.7,1.8,2470.39,13.32,0.029,97.8
2020-09-10T02:37:03,42.805,6.029,0.011,-0.01,-0.039,105.0,114.0,103.0,13.4,1505.3,324.8,-0.7,1.8,2470.421,13.32,0.014,132.3
2020-09-10T02:40:03,42.805,6.029,0.01,-0.014,-0.015,105.0,113.0,103.0,13.4,1505.3,324.9,-0.7,1.8,2470.417,13.32,0.017,144.5
2020-09-10T02:43:03,42.805,6.029,0.017,0.01,0.0,105.0,113.0,102.0,13.3,1505.3,326.7,-0.7,1.8,2470.372,13.32,0.019,59.5
2020-09-10T02:46:04,42.805,6.029,0.021,-0.002,-0.018,105.0,113.0,102.0,13.4,1505.3,328.0,-0.7,1.8,2470.399,13.32,0.021,95.4
2020-09-10T02:49:03,42.805,6.029,0.057,0.001,-0.023,105.0,112.0,102.0,13.3,1505.3,327.5,-0.7,1.9,2470.367,13.32,0.057,89.0
2020-09-10T02:52:03,42.805,6.029,0.053,-0.016,0.029,105.0,112.0,102.0,13.3,1505.3,325.3,-0.7,1.8,2470.345,13.32,0.055,106.8
2020-09-10T02:55:03,42.805,6.029,0.025,-0.001,-0.003,105.0,115.0,101.0,13.4,1505.3,327.6,-0.7,1.8,2470.389,13.32,0.025,92.3
2020-09-10T02:58:03,42.805,6.029,0.018,-0.005,0.0,104.0,116.0,102.0,13.4,1505.3,325.0,-0.7,1.8,2470.385,13.32,0.018,105.5
2020-09-10T03:04:03,42.805,6.029,0.026,0.006,-0.007,103.0,116.0,102.0,13.3,1505.2,324.1,-0.7,1.8,2470.432,13.3,0.026,77.0
2020-09-10T03:07:03,42.805,6.029,0.046,-0.016,-0.004,105.0,113.0,102.0,13.3,1505.3,326.2,-0.7,1.9,2470.38,13.31,0.048,109.2
2020-09-10T03:10:03,42.805,6.029,0.006,-0.013,-0.024,104.0,114.0,102.0,13.3,1505.3,323.5,-0.7,1.8,2470.426,13.31,0.014,155.2
2020-09-10T03:13:03,42.805,6.029,0.034,-0.003,0.005,104.0,112.0,101.0,13.4,1505.3,328.0,-0.7,1.8,2470.384,13.32,0.034,95.0
2020-09-10T03:16:03,42.805,6.029,0.024,-0.006,-0.035,104.0,115.0,102.0,13.3,1505.3,325.3,-0.7,1.8,2470.393,13.32,0.024,104.0
2020-09-10T03:19:03,42.805,6.029,0.035,0.004,-0.019,103.0,114.0,103.0,13.4,1505.3,326.3,-0.7,1.8,2470.362,13.32,0.035,83.5
2020-09-10T03:22:04,42.805,6.029,0.038,-0.001,0.003,104.0,112.0,102.0,13.4,1505.3,323.7,-0.7,1.8,2470.377,13.32,0.038,91.5
2020-09-10T03:25:03,42.805,6.029,0.031,-0.008,0.001,104.0,111.0,103.0,13.4,1505.3,324.0,-0.7,1.8,2470.382,13.32,0.032,104.5
2020-09-10T03:28:03,42.805,6.029,0.033,0.006,-0.003,103.0,114.0,102.0,13.4,1505.3,323.0,-0.7,1.8,2470.383,13.32,0.033,79.7
2020-09-10T03:31:03,42.805,6.029,0.046,-0.013,-0.009,105.0,112.0,103.0,13.3,1505.3,324.7,-0.7,1.8,2470.347,13.32,0.047,105.8
2020-09-10T03:34:03,42.805,6.029,0.034,-0.031,-0.008,103.0,111.0,103.0,13.3,1505.3,327.7,-0.7,1.8,2470.379,13.32,0.046,132.4
2020-09-10T03:37:04,42.805,6.029,0.041,-0.013,-0.012,106.0,111.0,102.0,13.4,1505.3,325.9,-0.7,1.8,2470.321,13.32,0.043,107.6
2020-09-10T03:40:03,42.805,6.029,0.046,-0.03,0.006,105.0,111.0,102.0,13.4,1505.3,328.1,-0.7,1.8,2470.398,13.32,0.054,123.1
2020-09-10T03:43:03,42.805,6.029,0.027,0.001,-0.005,105.0,113.0,102.0,13.4,1505.3,324.2,-0.7,1.8,2470.351,13.32,0.027,87.9
2020-09-10T03:46:04,42.805,6.029,0.041,0.01,0.015,105.0,112.0,102.0,13.4,1505.3,325.7,-0.7,1.8,2470.302,13.32,0.042,76.3
2020-09-10T03:49:03,42.805,6.029,0.015,-0.019,-0.007,105.0,109.0,102.0,13.3,1505.3,325.6,-0.7,1.8,2470.365,13.32,0.024,141.7
2020-09-10T03:52:03,42.805,6.029,0.044,-0.013,-0.007,104.0,111.0,103.0,13.4,1505.3,327.1,-0.7,1.8,2470.319,13.32,0.045,106.5
2020-09-10T03:55:03,42.805,6.029,0.049,0.009,-0.002,104.0,113.0,102.0,13.3,1505.3,324.3,-0.7,1.8,2470.366,13.32,0.049,79.6
2020-09-10T03:58:03,42.805,6.029,0.039,-0.002,0.006,104.0,111.0,102.0,13.3,1505.3,322.7,-0.7,1.9,2470.317,13.32,0.039,92.9
2020-09-10T04:04:03,42.805,6.029,0.049,-0.009,0.004,103.0,112.0,101.0,13.4,1505.2,326.4,-0.7,1.8,2470.357,13.3,0.049,100.4
2020-09-10T04:07:03,42.805,6.029,0.032,-0.014,-0.016,104.0,111.0,101.0,13.4,1505.3,323.4,-0.7,1.8,2470.373,13.31,0.034,113.6
2020-09-10T04:10:03,42.805,6.029,0.045,-0.001,0.002,104.0,111.0,102.0,13.3,1505.3,327.8,-0.7,1.9,2470.37,13.31,0.045,91.3
2020-09-10T04:13:03,42.805,6.029,0.022,-0.021,0.009,103.0,111.0,101.0,13.4,1505.3,326.7,-0.7,1.8,2470.35,13.32,0.03,133.7
2020-09-10T04:16:03,42.805,6.029,0.072,-0.017,0.014,104.0,110.0,102.0,13.4,1505.3,328.4,-0.7,1.8,2470.364,13.32,0.073,103.3
2020-09-10T04:19:03,42.805,6.029,0.025,0.012,-0.026,104.0,108.0,101.0,13.3,1505.3,323.1,-0.7,1.8,2470.34,13.32,0.027,64.4
2020-09-10T04:22:03,42.805,6.029,0.032,-0.015,0.0,104.0,110.0,101.0,13.4,1505.3,324.5,-0.7,1.8,2470.368,13.32,0.035,115.1
2020-09-10T04:25:03,42.805,6.029,0.011,-0.027,-0.008,104.0,109.0,102.0,13.3,1505.3,324.8,-0.7,1.8,2470.341,13.32,0.029,157.8
2020-09-10T04:28:03,42.805,6.029,0.041,0.0,-0.004,103.0,111.0,102.0,13.4,1505.3,323.4,-0.7,1.8,2470.33,13.32,0.041,90.0
2020-09-10T04:31:04,42.805,6.029,0.058,-0.018,-0.011,103.0,111.0,101.0,13.4,1505.3,325.7,-0.7,1.8,2470.38,13.32,0.06,107.2
2020-09-10T04:34:03,42.805,6.029,0.038,-0.013,-0.001,104.0,112.0,102.0,13.3,1505.3,328.3,-0.7,1.8,2470.321,13.32,0.04,108.9
2020-09-10T04:37:03,42.805,6.029,0.04,0.007,-0.013,105.0,110.0,101.0,13.3,1505.3,323.4,-0.7,1.8,2470.352,13.32,0.04,80.1
2020-09-10T04:40:03,42.805,6.029,0.022,0.005,-0.005,104.0,112.0,102.0,13.4,1505.3,326.1,-0.7,1.8,2470.317,13.32,0.022,77.2
2020-09-10T04:43:03,42.805,6.029,0.017,0.009,0.021,105.0,113.0,102.0,13.4,1505.3,324.7,-0.7,1.8,2470.331,13.32,0.019,62.1
2020-09-10T04:49:03,42.805,6.029,0.022,-0.017,-0.011,104.0,113.0,101.0,13.4,1505.2,322.8,-0.7,1.8,2470.414,13.3,0.027,127.7
2020-09-10T04:52:03,42.805,6.029,0.05,0.001,0.025,103.0,113.0,102.0,13.3,1505.3,322.9,-0.7,1.8,2470.382,13.31,0.05,88.9
2020-09-10T04:55:03,42.805,6.029,0.023,-0.016,-0.019,103.0,109.0,102.0,13.4,1505.3,324.0,-0.7,1.8,2470.343,13.31,0.028,124.8
2020-09-10T04:58:03,42.805,6.029,0.042,0.005,0.0,105.0,113.0,101.0,13.3,1505.3,326.0,-0.7,1.8,2470.315,13.32,0.042,83.2
2020-09-10T05:04:03,42.805,6.029,0.034,0.004,0.025,103.0,113.0,100.0,13.3,1505.2,326.2,-0.7,1.8,2470.381,13.3,0.034,83.3
2020-09-10T05:07:03,42.805,6.029,0.018,-0.012,-0.036,103.0,112.0,102.0,13.3,1505.3,326.4,-0.7,1.8,2470.359,13.31,0.021,123.7
2020-09-10T05:10:03,42.805,6.029,0.028,-0.002,-0.015,103.0,113.0,101.0,13.4,1505.3,326.1,-0.7,1.8,2470.346,13.31,0.028,94.1
2020-09-10T05:13:03,42.805,6.029,0.047,-0.009,0.003,104.0,110.0,101.0,13.4,1505.3,322.7,-0.7,1.8,2470.361,13.32,0.047,100.8
2020-09-10T05:16:03,42.805,6.029,0.023,-0.001,-0.008,105.0,114.0,100.0,13.3,1505.3,324.5,-0.7,1.8,2470.365,13.32,0.023,92.5
2020-09-10T05:19:03,42.805,6.029,0.054,-0.006,0.013,104.0,112.0,102.0,13.4,1505.3,328.3,-0.7,1.8,2470.343,13.32,0.054,96.3
2020-09-10T05:22:03,42.805,6.029,0.04,-0.017,-0.022,104.0,110.0,102.0,13.3,1505.3,323.9,-0.7,1.8,2470.379,13.32,0.043,113.0
2020-09-10T05:25:03,42.805,6.029,0.044,-0.016,0.003,104.0,109.0,102.0,13.3,1505.3,324.3,-0.7,1.9,2470.326,13.32,0.046,110.0
2020-09-10T05:28:03,42.805,6.029,0.045,-0.024,0.01,103.0,110.0,101.0,13.4,1505.3,322.7,-0.7,1.8,2470.344,13.32,0.051,118.1
2020-09-10T05:31:03,42.805,6.029,0.037,0.009,0.017,104.0,110.0,102.0,13.4,1505.3,326.3,-0.7,1.9,2470.309,13.32,0.038,76.3
2020-09-10T05:34:03,42.805,6.029,0.018,-0.036,-0.048,103.0,113.0,100.0,13.4,1505.3,324.7,-0.7,1.8,2470.382,13.32,0.04,153.4
2020-09-10T05:37:03,42.805,6.029,0.036,0.0,-0.006,103.0,114.0,102.0,13.4,1505.3,326.6,-0.7,1.8,2470.385,13.32,0.036,90.0
2020-09-10T05:40:03,42.805,6.029,0.034,-0.001,0.009,103.0,112.0,101.0,13.4,1505.3,326.4,-0.7,1.8,2470.337,13.32,0.034,91.7
2020-09-10T05:43:03,42.805,6.029,0.046,-0.017,-0.012,103.0,113.0,101.0,13.4,1505.3,326.7,-0.7,1.8,2470.343,13.32,0.049,110.3
2020-09-10T05:46:03,42.805,6.029,0.036,-0.021,-0.012,105.0,110.0,102.0,13.4,1505.3,326.4,-0.7,1.8,2470.347,13.32,0.041,120.3
2020-09-10T05:49:03,42.805,6.029,0.033,-0.013,0.003,102.0,111.0,102.0,13.3,1505.3,323.2,-0.7,1.8,2470.335,13.32,0.035,111.5
2020-09-10T05:52:04,42.805,6.029,0.011,-0.02,0.007,103.0,110.0,101.0,13.3,1505.3,325.8,-0.7,1.8,2470.327,13.32,0.022,151.2
2020-09-10T05:55:03,42.805,6.029,0.033,-0.026,-0.028,105.0,111.0,101.0,13.4,1505.3,325.4,-0.7,1.8,2470.35,13.32,0.042,128.2
2020-09-10T05:58:03,42.805,6.029,0.039,-0.022,-0.019,105.0,108.0,100.0,13.4,1505.3,327.7,-0.7,1.8,2470.287,13.32,0.044,119.4
2020-09-10T06:04:03,42.805,6.029,0.047,-0.039,0.011,103.0,108.0,102.0,13.4,1505.2,324.6,-0.8,1.8,2470.382,13.3,0.061,129.7
2020-09-10T06:07:03,42.805,6.029,0.052,-0.028,0.0,103.0,108.0,102.0,13.3,1505.3,325.9,-0.7,1.8,2470.328,13.31,0.059,118.3
2020-09-10T06:10:03,42.805,6.029,0.054,-0.002,0.026,103.0,106.0,102.0,13.4,1505.3,326.8,-0.7,1.9,2470.312,13.31,0.054,92.1
2020-09-10T06:13:03,42.805,6.029,0.046,-0.028,0.01,105.0,108.0,102.0,13.4,1505.3,326.6,-0.7,1.8,2470.327,13.32,0.053,121.3
2020-09-10T06:16:03,42.805,6.029,0.058,0.008,0.019,105.0,109.0,101.0,13.4,1505.3,324.7,-0.7,1.9,2470.326,13.32,0.058,82.2
2020-09-10T06:19:03,42.805,6.029,0.029,-0.018,-0.003,102.0,109.0,103.0,13.4,1505.3,324.5,-0.7,1.9,2470.381,13.32,0.034,121.8
2020-09-10T06:22:03,42.805,6.029,0.042,-0.029,-0.026,103.0,108.0,102.0,13.4,1505.3,324.3,-0.7,1.8,2470.285,13.32,0.051,124.6
2020-09-10T06:25:03,42.805,6.029,0.049,-0.014,0.02,105.0,107.0,101.0,13.4,1505.3,322.9,-0.7,1.8,2470.322,13.32,0.05,105.9
2020-09-10T06:28:03,42.805,6.029,0.044,-0.011,0.012,103.0,108.0,102.0,13.4,1505.3,325.4,-0.7,1.8,2470.337,13.32,0.045,104.0
2020-09-10T06:31:04,42.805,6.029,0.03,-0.023,-0.001,104.0,107.0,101.0,13.4,1505.3,327.5,-0.7,1.8,2470.351,13.32,0.037,127.5
2020-09-10T06:34:03,42.805,6.029,0.051,-0.004,-0.019,104.0,109.0,101.0,13.4,1505.3,325.0,-0.7,1.9,2470.345,13.32,0.051,94.5
2020-09-10T06:37:03,42.805,6.029,0.06,-0.013,-0.025,104.0,109.0,102.0,13.4,1505.3,326.8,-0.7,1.8,2470.328,13.32,0.061,102.2
2020-09-10T06:40:03,42.805,6.029,0.051,-0.025,-0.001,104.0,106.0,102.0,13.3,1505.3,327.3,-0.8,1.8,2470.316,13.32,0.056,116.1
2020-09-10T06:43:04,42.805,6.029,0.048,-0.011,0.042,105.0,107.0,101.0,13.3,1505.3,325.8,-0.7,1.8,2470.323,13.32,0.049,102.9
2020-09-10T06:46:03,42.805,6.029,0.053,-0.029,0.006,104.0,109.0,101.0,13.3,1505.3,324.5,-0.7,1.8,2470.309,13.32,0.06,118.7
2020-09-10T06:49:03,42.805,6.029,0.032,-0.019,-0.003,104.0,108.0,100.0,13.4,1505.3,323.2,-0.7,1.8,2470.313,13.32,0.037,120.7
2020-09-10T06:52:03,42.805,6.029,0.032,-0.012,0.004,103.0,110.0,102.0,13.3,1505.3,324.6,-0.7,1.9,2470.304,13.32,0.034,110.6
2020-09-10T06:55:03,42.805,6.029,0.027,-0.01,-0.009,103.0,107.0,102.0,13.4,1505.3,322.9,-0.7,1.8,2470.315,13.32,0.028,110.3
2020-09-10T06:58:03,42.805,6.029,0.039,-0.015,-0.013,104.0,109.0,101.0,13.4,1505.3,327.3,-0.7,1.8,2470.303,13.32,0.041,111.0
2020-09-10T07:04:03,42.805,6.029,0.038,-0.022,-0.025,103.0,108.0,103.0,13.4,1505.2,324.9,-0.7,1.8,2470.336,13.3,0.043,120.1
2020-09-10T07:07:03,42.805,6.029,0.034,-0.013,-0.036,103.0,106.0,103.0,13.4,1505.3,324.7,-0.7,1.8,2470.342,13.31,0.036,110.9
2020-09-10T07:10:03,42.805,6.029,0.055,-0.039,0.016,104.0,106.0,102.0,13.4,1505.3,327.8,-0.7,1.8,2470.339,13.31,0.067,125.3
2020-09-10T07:13:04,42.805,6.029,0.026,-0.025,-0.001,104.0,107.0,102.0,13.4,1505.3,326.4,-0.7,1.8,2470.279,13.32,0.036,133.9
2020-09-10T07:16:03,42.805,6.029,0.03,-0.009,-0.014,103.0,108.0,102.0,13.4,1505.3,328.6,-0.7,1.8,2470.359,13.32,0.031,106.7
2020-09-10T07:19:03,42.805,6.029,0.051,-0.009,0.022,104.0,109.0,101.0,13.3,1505.3,325.4,-0.7,1.8,2470.375,13.32,0.051,100.0
2020-09-10T07:22:03,42.805,6.029,0.062,-0.027,-0.014,104.0,107.0,102.0,13.4,1505.3,327.5,-0.7,1.8,2470.307,13.32,0.067,113.5
2020-09-10T07:25:03,42.805,6.029,0.052,-0.017,-0.002,104.0,107.0,101.0,13.3,1505.3,326.0,-0.7,1.8,2470.343,13.32,0.054,108.1
2020-09-10T07:28:03,42.805,6.029,0.03,-0.04,0.016,103.0,108.0,100.0,13.3,1505.3,327.7,-0.7,1.8,2470.297,13.32,0.05,143.1
2020-09-10T07:31:06,42.805,6.029,0.042,-0.026,0.008,104.0,107.0,102.0,13.3,1505.3,327.1,-0.7,1.8,2470.321,13.32,0.049,121.8
2020-09-10T07:34:03,42.805,6.029,0.02,-0.035,-0.003,103.0,107.0,102.0,13.4,1505.3,326.9,-0.7,1.8,2470.312,13.32,0.04,150.3
2020-09-10T07:37:04,42.805,6.029,0.042,0.007,0.032,105.0,106.0,101.0,13.4,1505.3,324.9,-0.7,1.8,2470.315,13.32,0.042,80.5
2020-09-10T07:40:03,42.805,6.029,0.035,-0.01,-0.025,104.0,107.0,101.0,13.3,1505.3,328.0,-0.7,1.8,2470.292,13.32,0.036,105.9
2020-09-10T07:43:03,42.805,6.029,0.045,-0.006,0.009,103.0,108.0,102.0,13.4,1505.3,323.2,-0.7,1.8,2470.302,13.32,0.045,97.6
2020-09-10T07:46:05,42.805,6.029,0.029,-0.024,0.006,103.0,109.0,101.0,13.3,1505.3,324.6,-0.7,1.8,2470.294,13.32,0.037,129.6
2020-09-10T07:49:03,42.805,6.029,0.034,-0.016,-0.011,104.0,107.0,102.0,13.3,1505.3,324.7,-0.7,1.8,2470.336,13.32,0.037,115.2
2020-09-10T07:52:03,42.805,6.029,0.033,-0.032,-0.02,104.0,106.0,101.0,13.3,1505.3,328.5,-0.7,1.9,2470.314,13.32,0.045,134.1
2020-09-10T07:55:03,42.805,6.029,0.055,-0.017,0.018,104.0,107.0,102.0,13.3,1505.3,322.7,-0.7,1.8,2470.343,13.32,0.057,107.2
2020-09-10T07:58:03,42.805,6.029,0.055,-0.05,-0.014,103.0,105.0,102.0,13.4,1505.3,326.0,-0.7,1.8,2470.294,13.32,0.074,132.3
2020-09-10T08:04:03,42.805,6.029,0.018,-0.031,0.002,105.0,106.0,102.0,13.4,1505.2,324.0,-0.7,1.8,2470.397,13.3,0.035,149.9
2020-09-10T08:07:03,42.805,6.029,0.023,-0.046,0.008,104.0,106.0,101.0,13.4,1505.3,327.8,-0.7,1.8,2470.329,13.31,0.051,153.4
2020-09-10T08:10:03,42.805,6.029,0.03,-0.014,-0.04,104.0,107.0,101.0,13.4,1505.3,326.3,-0.7,1.8,2470.285,13.31,0.033,115.0
2020-09-10T08:13:03,42.805,6.029,0.019,-0.021,0.02,103.0,109.0,103.0,13.3,1505.3,327.3,-0.7,1.8,2470.358,13.32,0.028,137.9
2020-09-10T08:16:03,42.805,6.029,0.039,-0.027,0.005,103.0,106.0,102.0,13.3,1505.3,325.6,-0.7,1.8,2470.313,13.32,0.047,124.7
2020-09-10T08:19:03,42.805,6.029,0.054,-0.033,0.017,105.0,106.0,101.0,13.4,1505.3,325.3,-0.7,1.8,2470.344,13.32,0.063,121.4
2020-09-10T08:22:03,42.805,6.029,0.036,-0.007,-0.006,104.0,105.0,101.0,13.3,1505.3,323.7,-0.7,1.8,2470.335,13.32,0.036,101.0
2020-09-10T08:25:03,42.805,6.029,0.046,-0.003,-0.001,103.0,107.0,100.0,13.3,1505.3,326.4,-0.7,1.8,2470.316,13.32,0.046,93.7
2020-09-10T08:28:03,42.805,6.029,0.038,-0.03,0.013,103.0,108.0,102.0,13.3,1505.3,324.2,-0.7,1.9,2470.388,13.32,0.048,128.3
2020-09-10T08:31:04,42.805,6.029,0.039,-0.006,0.036,102.0,106.0,102.0,13.3,1505.3,325.7,-0.7,1.8,2470.355,13.32,0.039,98.7
2020-09-10T08:34:03,42.805,6.029,0.07,-0.042,0.003,103.0,107.0,101.0,13.3,1505.3,328.0,-0.7,1.8,2470.359,13.32,0.081,121.0
2020-09-10T08:37:03,42.805,6.029,0.052,-0.022,0.015,104.0,107.0,102.0,13.4,1505.3,326.9,-0.7,1.8,2470.372,13.32,0.056,112.9
2020-09-10T08:40:03,42.805,6.029,0.06,-0.028,0.017,103.0,106.0,101.0,13.4,1505.3,328.2,-0.7,1.8,2470.345,13.32,0.066,115.0
2020-09-10T08:43:03,42.805,6.029,0.046,-0.025,0.023,105.0,106.0,101.0,13.4,1505.3,324.9,-0.7,1.8,2470.35,13.32,0.052,118.5
2020-09-10T08:46:03,42.805,6.029,0.055,-0.044,0.023,104.0,106.0,102.0,13.4,1505.3,326.0,-0.7,1.9,2470.372,13.32,0.07,128.7
2020-09-10T08:49:04,42.805,6.029,0.04,-0.026,0.001,103.0,106.0,102.0,13.3,1505.3,325.2,-0.7,1.8,2470.335,13.32,0.047,123.0
2020-09-10T08:52:03,42.805,6.029,0.023,-0.035,-0.021,105.0,105.0,101.0,13.4,1505.3,325.2,-0.7,1.8,2470.382,13.32,0.041,146.7
2020-09-10T08:55:03,42.805,6.029,0.022,-0.031,-0.022,105.0,105.0,102.0,13.4,1505.3,326.0,-0.7,1.8,2470.358,13.32,0.038,144.6
2020-09-10T08:58:03,42.805,6.029,0.041,-0.027,-0.017,103.0,106.0,102.0,13.4,1505.3,323.4,-0.7,1.8,2470.337,13.32,0.049,123.4
2020-09-10T09:04:03,42.805,6.029,0.023,-0.012,0.022,102.0,106.0,101.0,13.4,1505.2,324.6,-0.7,1.8,2470.446,13.3,0.025,117.6
2020-09-10T09:07:03,42.805,6.029,0.034,-0.024,-0.012,103.0,106.0,101.0,13.4,1505.3,324.0,-0.7,1.8,2470.444,13.31,0.041,125.2
2020-09-10T09:10:03,42.805,6.029,0.027,-0.022,-0.024,103.0,105.0,102.0,13.4,1505.3,328.2,-0.7,1.8,2470.409,13.31,0.034,129.2
2020-09-10T09:13:03,42.805,6.029,0.049,-0.047,-0.009,104.0,106.0,101.0,13.3,1505.3,324.5,-0.7,1.9,2470.424,13.32,0.067,133.8
2020-09-10T09:16:03,42.805,6.029,0.035,-0.014,0.011,103.0,107.0,101.0,13.4,1505.3,324.2,-0.7,1.8,2470.395,13.32,0.037,111.8
2020-09-10T09:19:03,42.805,6.029,0.05,-0.03,-0.028,103.0,106.0,102.0,13.3,1505.3,323.9,-0.7,1.8,2470.371,13.32,0.058,121.0
2020-09-10T09:22:03,42.805,6.029,0.022,-0.015,-0.029,104.0,106.0,101.0,13.3,1505.3,326.4,-0.7,1.8,2470.367,13.32,0.026,124.3
2020-09-10T09:25:03,42.805,6.029,0.025,-0.012,-0.012,103.0,106.0,101.0,13.4,1505.3,324.6,-0.7,1.8,2470.41,13.32,0.027,115.6
2020-09-10T09:28:03,42.805,6.029,0.054,-0.034,-0.008,104.0,105.0,102.0,13.4,1505.3,326.5,-0.7,1.8,2470.379,13.32,0.063,122.2
2020-09-10T09:31:03,42.805,6.029,0.026,-0.012,-0.001,103.0,106.0,103.0,13.4,1505.3,322.9,-0.7,1.8,2470.389,13.32,0.028,114.8
2020-09-10T09:34:03,42.805,6.029,0.06,-0.033,0.003,104.0,108.0,102.0,13.4,1505.3,328.2,-0.7,1.8,2470.44,13.32,0.068,118.8
2020-09-10T09:37:03,42.805,6.029,0.058,-0.015,0.004,104.0,107.0,100.0,13.4,1505.3,326.2,-0.7,1.8,2470.372,13.32,0.059,104.5
2020-09-10T09:43:03,42.805,6.029,0.043,-0.025,0.019,105.0,109.0,101.0,13.4,1505.2,324.9,-0.7,1.8,2470.43,13.3,0.049,120.2
2020-09-10T09:46:03,42.805,6.029,0.022,0.001,0.002,104.0,107.0,101.0,13.4,1505.3,323.2,-0.7,1.8,2470.433,13.31,0.022,87.4
2020-09-10T09:49:03,42.805,6.029,0.042,-0.006,-0.02,104.0,107.0,100.0,13.4,1505.3,323.3,-0.7,1.8,2470.409,13.31,0.042,98.1
2020-09-10T09:52:03,42.805,6.029,0.034,-0.022,0.03,103.0,107.0,101.0,13.4,1505.3,325.9,-0.7,1.8,2470.429,13.32,0.04,122.9
2020-09-10T09:55:03,42.805,6.029,0.038,-0.035,-0.014,104.0,108.0,103.0,13.3,1505.3,326.5,-0.7,1.8,2470.396,13.32,0.051,132.6
2020-09-10T09:58:03,42.805,6.029,0.035,-0.02,-0.02,104.0,111.0,102.0,13.3,1505.3,323.3,-0.7,1.8,2470.417,13.32,0.04,119.7
2020-09-10T10:04:04,42.805,6.029,0.03,-0.033,-0.002,103.0,107.0,102.0,13.3,1505.2,327.5,-0.8,1.9,2470.468,13.3,0.044,137.7
2020-09-10T10:07:03,42.805,6.029,0.023,-0.014,0.011,104.0,108.0,101.0,13.4,1505.3,326.0,-0.7,1.8,2470.419,13.31,0.026,121.3
2020-09-10T10:10:03,42.805,6.029,0.042,-0.009,0.017,104.0,108.0,102.0,13.4,1505.3,327.5,-0.7,1.8,2470.399,13.31,0.042,102.1